GW1475 Weather Reports


time (UTC)temp
C
wind
direction
speed
KPH
gust
KPH
rain 1hr
cm
rain 24hr
cm
rain mn
cm
humidity
%
barometer
mb
20260508153342 18 106 3.2 3.2 0.00 0.00 0.00 46 1011.5
20260508152746 18 205 1.6 1.6 0.00 0.00 0.00 46 1011.5
20260508151536 17 117 17.7 19.3 0.00 0.00 0.00 46 1011.5
20260508150945 17 334 4.8 4.8 0.00 0.00 0.00 45 1011.5
20260508145746 16 148 8.0 12.9 0.00 0.00 0.00 54 1011.5
20260508145148 16 121 12.9 19.3 0.00 0.00 0.00 56 1011.5
20260508143942 15 190 0.0 0.0 0.00 0.00 0.00 60 1011.5
20260508142727 15 101 1.6 3.2 0.00 0.00 0.00 64 1011.8
20260508142148 14 118 6.4 6.4 0.00 0.00 0.00 71 1011.5
20260508141518 13 113 4.8 4.8 0.00 0.00 0.00 76 1011.5
20260508140936 13 128 4.8 4.8 0.00 0.00 0.00 75 1011.8
20260508135748 11 119 3.2 3.2 0.00 0.00 0.00 89 1011.8
20260508135145 11 120 3.2 3.2 0.00 0.00 0.00 92 1011.8
20260508134522 10 119 0.0 1.6 0.00 0.00 0.00 95 1011.8
20260508133916 10 118 0.0 0.0 0.00 0.00 0.00 97 1012.5
20260508133312 10 117 0.0 0.0 0.00 0.00 0.00 99 1012.1
20260508132726 8 121 0.0 0.0 0.00 0.00 0.00 99 1012.1
20260508132122 8 118 0.0 0.0 0.00 0.00 0.00 99 1011.8
20260508130308 7 136 0.0 0.0 0.00 0.00 0.00 99 1012.1
20260508125126 6 136 0.0 0.0 0.00 0.00 0.00 99 1012.1
20260508123936 4 136 0.0 0.0 0.00 0.00 0.00 99 1012.5
20260508123350 3 136 0.0 0.0 0.00 0.00 0.00 99 1012.5
20260508122731 3 136 0.0 0.0 0.00 0.00 0.00 99 1012.5
20260508122120 3 129 0.0 0.0 0.00 0.00 0.00 99 1012.1
20260508121537 3 71 0.0 0.0 0.00 0.00 0.00 99 1012.1
20260508120920 3 128 1.6 1.6 0.00 0.00 0.00 99 1012.5
20260508115710 2 134 0.0 0.0 0.00 0.00 0.00 99 1012.1
20260508115148 2 148 1.6 1.6 0.00 0.00 0.00 99 1012.1
20260508114519 2 140 1.6 1.6 0.00 0.00 0.00 99 1012.1
20260508113930 2 137 1.6 1.6 0.00 0.00 0.00 99 1012.1
20260508113316 2 132 0.0 1.6 0.00 0.00 0.00 99 1012.1
20260508112719 2 137 1.6 3.2 0.00 0.00 0.00 99 1012.1
20260508112143 2 130 1.6 1.6 0.00 0.00 0.00 99 1012.1
20260508111542 2 124 1.6 3.2 0.00 0.00 0.00 99 1012.1
20260508110922 2 143 1.6 1.6 0.00 0.00 0.00 99 1011.8
20260508110326 2 124 3.2 3.2 0.00 0.00 0.00 99 1012.1
20260508105142 2 122 3.2 3.2 0.00 0.00 0.00 99 1011.8
20260508103936 2 143 1.6 3.2 0.00 0.00 0.00 99 1011.8
20260508103338 2 140 1.6 1.6 0.00 0.00 0.00 99 1011.5
20260508102715 2 144 1.6 3.2 0.00 0.00 0.00 99 1011.8
20260508102115 2 139 1.6 1.6 0.00 0.00 0.00 99 1011.5
20260508101512 2 135 1.6 3.2 0.00 0.00 0.00 99 1011.5
20260508100938 2 133 1.6 3.2 0.00 0.00 0.00 99 1011.5
20260508100331 2 142 1.6 1.6 0.00 0.00 0.00 99 1011.5
20260508095748 2 131 1.6 1.6 0.00 0.00 0.00 99 1011.5
20260508095130 2 144 1.6 1.6 0.00 0.00 0.00 99 1011.5
20260508094522 2 124 3.2 3.2 0.00 0.00 0.00 99 1011.5
20260508093943 2 132 1.6 3.2 0.00 0.00 0.00 99 1011.5
20260508092722 2 123 0.0 1.6 0.00 0.00 0.00 99 1011.5
20260508092142 2 136 1.6 1.6 0.00 0.00 0.00 99 1011.5
20260508091528 2 118 1.6 1.6 0.00 0.00 0.00 99 1011.5
20260508090932 2 139 1.6 1.6 0.00 0.00 0.00 99 1011.5
20260508085139 2 126 3.2 3.2 0.00 0.00 0.00 99 1011.1
20260508084547 2 126 1.6 1.6 0.00 0.00 0.00 99 1011.1
20260508083912 2 129 1.6 1.6 0.00 0.00 0.00 99 1011.1
20260508083313 3 138 1.6 1.6 0.00 0.00 0.00 99 1011.1
20260508082735 2 122 1.6 3.2 0.00 0.00 0.00 99 1011.1
20260508082150 3 134 3.2 3.2 0.00 0.00 0.00 99 1011.1
20260508081537 3 130 1.6 3.2 0.00 0.00 0.00 99 1011.1
20260508080328 3 140 1.6 1.6 0.00 0.00 0.00 99 1011.1
20260508075731 3 128 0.0 1.6 0.00 0.00 0.00 99 1011.1
20260508075120 3 119 3.2 3.2 0.00 0.00 0.00 99 1010.8
20260508074529 3 148 0.0 0.0 0.00 0.00 0.00 99 1011.1
20260508073327 3 143 0.0 0.0 0.00 0.00 0.00 99 1010.8
20260508072733 3 134 1.6 1.6 0.00 0.00 0.00 99 1011.1
20260508072115 3 139 0.0 1.6 0.00 0.00 0.00 99 1011.1
20260508071537 3 140 1.6 1.6 0.00 0.00 0.00 99 1010.8
20260508070951 3 141 0.0 0.0 0.00 0.00 0.00 99 1011.1
20260508070338 3 165 0.0 0.0 0.00 0.00 0.00 99 1010.8
20260508065738 3 165 0.0 0.0 0.00 0.00 0.00 99 1010.8
20260508065133 3 166 0.0 0.0 0.00 0.00 0.00 99 1011.1
20260508064520 3 165 0.0 0.0 0.00 0.00 0.00 99 1011.1
20260508063925 3 166 0.0 0.0 0.00 0.00 0.00 99 1010.8
20260508063318 3 166 0.0 0.0 0.00 0.00 0.00 99 1011.1
20260508062742 3 166 0.0 0.0 0.00 0.00 0.00 99 1011.1
20260508062146 3 166 0.0 0.0 0.00 0.00 0.00 99 1011.1
20260508061530 3 167 0.0 0.0 0.00 0.00 0.00 99 1011.1
20260508060909 3 166 0.0 0.0 0.00 0.00 0.00 99 1011.1
20260508060341 3 166 0.0 0.0 0.00 0.00 0.00 99 1011.1
20260508055751 3 166 0.0 0.0 0.00 0.00 0.00 99 1011.1
20260508055141 3 166 0.0 0.0 0.00 0.00 0.00 99 1011.1
20260508054544 3 166 0.0 0.0 0.00 0.00 0.00 99 1011.1
20260508052738 4 166 0.0 0.0 0.00 0.00 0.00 99 1011.1
20260508052132 4 166 0.0 0.0 0.00 0.00 0.00 99 1011.1
20260508051526 4 166 0.0 0.0 0.00 0.00 0.00 99 1011.1
20260508050945 4 166 0.0 0.0 0.00 0.00 0.00 99 1010.8
20260508050309 4 166 0.0 0.0 0.00 0.00 0.00 99 1011.1
20260508045724 4 166 0.0 0.0 0.00 0.00 0.00 99 1011.1
20260508045128 4 166 0.0 0.0 0.00 0.00 0.00 99 1011.1
20260508044542 5 166 0.0 0.0 0.00 0.00 0.00 99 1010.8
20260508043936 5 167 0.0 1.6 0.00 0.00 0.00 99 1010.8
20260508043347 5 166 0.0 0.0 0.00 0.00 0.00 99 1011.1
20260508042723 5 165 0.0 0.0 0.00 0.00 0.00 99 1011.1
20260508042141 5 165 0.0 0.0 0.00 0.00 0.00 99 1011.1
20260508041532 5 166 0.0 0.0 0.00 0.00 0.00 99 1010.8
20260508040318 5 166 0.0 0.0 0.00 0.00 0.00 99 1011.1
20260508035120 5 166 0.0 0.0 0.00 0.00 0.03 99 1010.8
20260508034526 5 166 0.0 0.0 0.00 0.00 0.03 99 1010.4
20260508033916 6 166 0.0 0.0 0.00 0.00 0.03 99 1010.8
20260508033321 6 166 0.0 0.0 0.00 0.00 0.03 99 1010.8
20260508032734 6 166 0.0 0.0 0.00 0.00 0.03 99 1010.8
20260508032147 6 166 0.0 0.0 0.00 0.00 0.03 99 1010.8
20260508031526 6 166 0.0 0.0 0.00 0.00 0.03 99 1010.8
20260508030931 6 166 0.0 0.0 0.00 0.00 0.03 99 1010.8
20260508030311 6 166 0.0 0.0 0.00 0.00 0.03 99 1010.4
20260508025719 6 166 0.0 0.0 0.00 0.00 0.03 99 1010.4
20260508025114 6 166 0.0 0.0 0.00 0.00 0.03 99 1010.4
20260508024525 6 166 0.0 0.0 0.00 0.00 0.03 99 1010.1
20260508023946 6 166 0.0 0.0 0.00 0.00 0.03 99 1010.1
20260508023341 7 166 0.0 0.0 0.00 0.00 0.03 99 1010.1
20260508022723 7 166 0.0 0.0 0.00 0.00 0.03 99 1010.1
20260508021515 7 166 0.0 0.0 0.00 0.00 0.03 98 1009.8
20260508020945 7 166 0.0 0.0 0.00 0.00 0.03 98 1009.8
20260508020349 7 166 0.0 0.0 0.00 0.00 0.03 97 1009.8
20260508015738 7 166 0.0 0.0 0.00 0.00 0.03 97 1009.8
20260508015145 8 166 0.0 0.0 0.00 0.00 0.03 96 1009.4
20260508014517 8 166 0.0 0.0 0.00 0.00 0.03 96 1009.4
20260508012725 8 166 0.0 0.0 0.00 0.00 0.03 94 1009.1
20260508011528 9 165 0.0 0.0 0.00 0.00 0.03 92 1009.4
20260508010935 9 164 0.0 0.0 0.00 0.00 0.03 91 1008.8
20260508010349 10 164 0.0 0.0 0.00 0.00 0.03 90 1008.8
20260508005736 10 162 0.0 0.0 0.00 0.00 0.03 90 1008.8
20260508003908 11 179 0.0 0.0 0.00 0.00 0.03 87 1008.4
20260508003340 11 168 0.0 0.0 0.00 0.00 0.03 85 1008.4
20260508002734 11 187 0.0 0.0 0.00 0.00 0.03 84 1008.4
20260508002110 11 304 0.0 1.6 0.00 0.00 0.03 83 1008.4
20260508001532 12 322 0.0 0.0 0.00 0.00 0.03 82 1008.1
20260508000949 12 321 0.0 0.0 0.00 0.00 0.03 81 1008.1
20260508000335 12 323 0.0 0.0 0.00 0.00 0.03 78 1008.1
20260507235747 13 166 1.6 1.6 0.00 0.00 0.03 77 1007.7
20260507235119 13 162 1.6 1.6 0.00 0.00 0.03 73 1007.7
20260507234551 13 63 1.6 1.6 0.00 0.00 0.03 73 1007.7
20260507233938 14 342 4.8 4.8 0.00 0.00 0.03 70 1007.7
20260507233347 14 13 1.6 1.6 0.00 0.00 0.03 70 1007.4
20260507231535 16 222 1.6 1.6 0.00 0.00 0.03 53 1007.4
20260507225744 17 217 3.2 3.2 0.00 0.00 0.03 50 1007.4
20260507225120 18 163 1.6 4.8 0.00 0.00 0.03 45 1007.4
20260507224527 18 213 4.8 6.4 0.00 0.00 0.03 44 1007.7
20260507223918 18 152 3.2 9.7 0.00 0.00 0.03 45 1007.4
20260507223338 18 12 8.0 9.7 0.00 0.00 0.03 44 1007.4
20260507222719 20 16 6.4 6.4 0.00 0.00 0.03 45 1007.1
20260507221516 18 239 0.0 0.0 0.00 0.00 0.03 45 1007.1
20260507220312 18 193 1.6 1.6 0.00 0.00 0.03 45 1007.1
20260507215738 18 210 1.6 3.2 0.00 0.00 0.03 46 1007.1
20260507215144 18 13 3.2 3.2 0.00 0.00 0.03 46 1007.1
20260507213944 18 134 6.4 6.4 0.00 0.00 0.03 46 1007.1
20260507212737 18 283 1.6 1.6 0.00 0.00 0.03 45 1006.7
20260507211532 19 174 1.6 3.2 0.00 0.00 0.03 45 1006.7
20260507210928 19 207 3.2 3.2 0.00 0.00 0.03 48 1006.4
20260507210344 18 311 4.8 4.8 0.00 0.00 0.03 48 1006.7
20260507204547 17 206 3.2 9.7 0.00 0.00 0.03 48 1006.7
20260507202737 18 265 8.0 12.9 0.00 0.00 0.03 47 1006.4
20260507202152 18 65 6.4 9.7 0.00 0.00 0.03 48 1006.4
20260507201538 18 77 4.8 4.8 0.00 0.00 0.03 48 1006.4
20260507200938 17 130 0.0 0.0 0.00 0.00 0.03 51 1006.4
20260507195752 17 66 3.2 4.8 0.00 0.00 0.03 49 1006.7
20260507195151 17 77 8.0 9.7 0.00 0.00 0.03 49 1006.7
20260507194514 18 289 12.9 16.1 0.00 0.00 0.03 46 1007.1
20260507193951 17 151 4.8 4.8 0.00 0.00 0.03 53 1006.7
20260507192732 17 106 9.7 14.5 0.00 0.00 0.03 54 1007.1
20260507192146 17 89 6.4 6.4 0.00 0.00 0.03 53 1007.1
20260507191535 17 326 8.0 9.7 0.00 0.00 0.03 53 1007.1
20260507190936 17 349 3.2 3.2 0.00 0.00 0.03 55 1007.1
20260507185724 16 234 3.2 4.8 0.00 0.00 0.03 58 1007.1
20260507185150 16 62 4.8 6.4 0.00 0.00 0.03 58 1007.4
20260507184549 16 92 4.8 4.8 0.00 0.00 0.03 60 1007.4
20260507183952 16 98 3.2 3.2 0.00 0.00 0.03 59 1007.7
20260507183308 16 14 4.8 6.4 0.00 0.00 0.03 59 1007.7
20260507182714 16 99 0.0 1.6 0.00 0.00 0.03 60 1007.7
20260507182150 17 183 1.6 1.6 0.00 0.00 0.03 59 1007.4
20260507181510 17 314 8.0 11.3 0.00 0.00 0.03 58 1007.7
20260507180928 17 293 3.2 4.8 0.00 0.00 0.03 59 1007.7
20260507180324 17 266 1.6 1.6 0.00 0.00 0.03 60 1007.7
20260507174520 15 355 3.2 3.2 0.00 0.00 0.03 65 1008.1
20260507173945 15 48 4.8 4.8 0.00 0.00 0.03 66 1008.1
20260507172732 16 173 4.8 4.8 0.00 0.00 0.03 67 1008.1
20260507172129 17 117 3.2 3.2 0.00 0.00 0.03 65 1008.1
20260507170911 15 234 4.8 4.8 0.00 0.00 0.03 66 1008.4
20260507170321 15 81 0.0 1.6 0.00 0.00 0.03 67 1008.4
20260507165750 15 6 1.6 1.6 0.00 0.00 0.03 65 1008.8
20260507165135 15 233 3.2 3.2 0.00 0.00 0.03 68 1008.4
20260507163923 15 252 1.6 3.2 0.00 0.00 0.03 64 1008.8
20260507162722 15 343 1.6 1.6 0.00 0.00 0.03 65 1008.8
20260507162152 15 266 3.2 3.2 0.00 0.00 0.03 66 1008.8
20260507161555 14 171 1.6 1.6 0.00 0.00 0.03 65 1008.8
20260507160923 15 254 3.2 3.2 0.00 0.00 0.03 67 1008.8
20260507160346 14 135 3.2 4.8 0.00 0.00 0.03 70 1008.8
20260507155731 14 167 3.2 4.8 0.00 0.00 0.03 66 1008.8
20260507155123 14 258 6.4 6.4 0.00 0.00 0.03 67 1008.8
20260507154519 15 298 6.4 6.4 0.00 0.00 0.03 65 1008.8
20260507153911 15 142 1.6 1.6 0.00 0.00 0.03 65 1008.8